Simultaneous Nadir Overpasses (SNOs) Predictions

Prediction of SNOs between NOAA-20 and NOAA-19 Satellite Orbit:

Table of predicted SNOs for the next 14.0 days since TLE Epoch: 12/12/2020
Index Date (NOAA-20) Time (NOAA-20) Lat,Lon (NOAA-20) SZA (NOAA-20 ) Date (NOAA-19) Time (NOAA-19) Lat,Lon (NOAA-19) SZA (NOAA-19 ) Distance(km) Time Diff (sec)
1 12/12/2020 03:12:21 78.84, 102.28 103.12 12/12/2020 03:12:04 78.83, 102.41 103.10 2.94 17
2 12/12/2020 04:03:05 -78.83, -90.32 76.91 12/12/2020 04:03:07 -78.82, -90.43 76.90 2.48 2
3 12/12/2020 04:53:51 78.84, 76.89 103.13 12/12/2020 04:54:04 78.84, 77.03 103.11 2.98 13
4 12/12/2020 05:44:35 -78.83,-115.71 76.90 12/12/2020 05:45:07 -78.83,-115.81 76.89 2.18 32
5 12/12/2020 06:35:21 78.85, 51.49 103.14 12/12/2020 06:36:05 78.83, 51.40 103.11 3.00 44
6 12/12/2020 07:26:05 -78.83,-141.10 76.89 12/12/2020 07:27:07 -78.85,-141.19 76.89 2.68 62
7 12/12/2020 08:16:51 78.85, 26.10 103.15 12/12/2020 08:18:05 78.84, 26.02 103.12 1.93 74



Historial Predications of SNOs between NOAA-20 and NOAA-19
